PROBA 1 1 26958U 01049B 22146.16288804 .00002819 00000-0 24169-3 0 9991 2 26958 97.8194 106.0632 0072855 59.2649 301.5717 14.96303456121144 BIRD 2 1 26959U 01049C 22145.82829616 .00016607 00000-0 36778-3 0 9995 2 26959 97.7618 236.0950 0007885 96.4156 263.7989 15.43835431449698 CUTE-1 1 27844U 03031E 22145.91736993 .00000354 00000-0 17841-3 0 9999 2 27844 98.6784 153.9443 0010235 160.3572 199.8002 14.22443109980661 CUBESAT XI 4 1 27848U 03031J 22145.59188911 .00000334 00000-0 17103-3 0 9997 2 27848 98.6828 154.1479 0009860 175.0646 185.0631 14.22001177980438 GENESIS 1 1 29252U 06029A 22145.44401685 .00005763 00000-0 25933-3 0 9999 2 29252 64.5204 146.6545 0060193 265.4070 94.0177 15.20516207875475 FALCONSAT 3 1 30776U 07006E 22146.14285900 .00044928 00000-0 71930-3 0 9990 2 30776 35.4327 46.2817 0003885 273.2789 86.7498 15.52050737846116 GENESIS 2 1 31789U 07028A 22145.49973067 .00005007 00000-0 23876-3 0 9995 2 31789 64.4960 189.5901 0045455 318.5257 41.2420 15.19411900822473 APRIZESAT 4 1 35684U 09041D 22145.58055075 .00001025 00000-0 14183-3 0 9997 2 35684 98.3111 158.4441 0048142 65.8986 294.7250 14.79622311691684 APRIZESAT 3 1 35686U 09041F 22146.03803181 .00001129 00000-0 12453-3 0 9992 2 35686 98.1058 232.2242 0070799 259.4032 99.9203 14.87878863695322 PROBA 2 1 36037U 09059B 22146.05322784 .00000260 00000-0 73283-4 0 9993 2 36037 98.2239 333.0768 0013540 172.8174 187.3218 14.53257540666090 APRIZESAT 5 1 37792U 11044E 22146.12839725 .00000816 00000-0 12415-3 0 9991 2 37792 98.3284 20.8981 0059179 75.7465 285.0306 14.75734916579852 APRIZESAT 6 1 37793U 11044F 22145.82387911 .00000762 00000-0 12583-3 0 9999 2 37793 98.4040 357.1356 0047673 125.8522 296.4363 14.72762686578684 TET-1 1 38710U 12039D 22146.16375499 .00057885 00000-0 50510-3 0 9990 2 38710 97.5102 225.1927 0002313 148.2338 211.9063 15.68804150553914 PROBA V 1 39159U 13021A 22146.07664283 .00000100 00000-0 62614-4 0 9999 2 39159 98.3585 183.1030 0004878 143.0784 217.0731 14.23034065470142 CUSAT 1 1 39266U 13055B 22145.82326728 .00010496 00000-0 26653-3 0 9997 2 39266 80.9800 266.2992 0585534 297.4976 56.7861 14.47576800450940 STPSAT-3 1 39380U 13064A 22145.45045197 .00025869 00000-0 56859-3 0 9992 2 39380 40.4968 177.2487 0005181 162.9932 197.1059 15.43365934477394 APRIZESAT 7 1 39416U 13066A 22145.50045460 .00001405 00000-0 17050-3 0 9993 2 39416 97.5701 126.7822 0042459 74.4251 286.1645 14.84419881460638 APRIZESAT 8 1 39425U 13066K 22145.89398249 .00001060 00000-0 13812-3 0 9990 2 39425 97.6244 118.4248 0053061 113.7846 246.8944 14.81579335459629 BUGSAT 1 1 40014U 14033E 22145.93876156 .00004103 00000-0 36186-3 0 9994 2 40014 98.1401 143.4299 0032426 111.0225 249.4470 14.96618474432778 SAUDISAT 4 1 40016U 14033G 22145.51444573 .00000648 00000-0 10057-3 0 9993 2 40016 97.6425 341.6246 0047260 214.3431 145.4722 14.75539577427011 TABLETSAT AURORA 1 40017U 14033H 22146.13521166 .00003786 00000-0 35102-3 0 9991 2 40017 98.1204 127.1770 0023969 124.0464 236.3027 14.94891221432231 APRIZESAT 9 1 40018U 14033J 22146.01248752 .00000564 00000-0 98192-4 0 9996 2 40018 97.7140 317.8153 0069730 285.9312 73.4220 14.70244297425487 APRIZESAT 10 1 40019U 14033K 22145.44432584 .00000552 00000-0 10142-3 0 9996 2 40019 97.7661 306.8745 0083223 330.6652 28.9895 14.67289892424421 AISAT 1 40054U 14034B 22146.05458734 .00003728 00000-0 50462-3 0 9996 2 40054 98.3574 316.5822 0012826 32.7243 327.4759 14.79577073426164 NLS 7.1/CANX 4 1 40055U 14034C 22145.41640580 .00001167 00000-0 17974-3 0 9994 2 40055 98.3535 301.6168 0015260 73.2351 287.0530 14.75404700425322 NLS 7.2/CANX 5 1 40056U 14034D 22146.03319696 .00001226 00000-0 18830-3 0 9993 2 40056 98.3533 302.2344 0015316 71.5356 288.7516 14.75401060425443 TDS 1 1 40076U 14037H 22145.74498867 .00002969 00000-0 35000-3 0 9996 2 40076 98.3951 17.4142 0007674 135.8358 224.3470 14.85576395426333 TIANTUO 2 1 40144U 14053B 22146.18832986 .00007997 00000-0 21754-3 0 9990 2 40144 97.1931 226.5629 0009335 281.6543 162.2481 15.37747841431678 TECHNOSAT 1 42829U 17042E 22145.68108500 .00002367 00000-0 23928-3 0 9996 2 42829 97.4242 1.1469 0015698 84.5021 275.7989 14.91813939264697 FLYING LAPTOP 1 42831U 17042G 22146.05894708 .00001045 00000-0 10874-3 0 9991 2 42831 97.4258 1.8170 0015406 82.6430 277.6553 14.91744142264757